TimeMST,TemperatureF,Dew PointF,Humidity,Sea Level PressureIn,VisibilityMPH,Wind Direction,Wind SpeedMPH,Gust SpeedMPH,PrecipitationIn,Events,Conditions,WindDirDegrees,DateUTC
12:52 AM,37.0,12.9,37,29.42,10.0,NW,6.9,-,N/A,,Clear,310,2011-11-12 07:52:00
1:52 AM,36.0,10.9,36,29.40,10.0,WNW,5.8,-,N/A,,Clear,290,2011-11-12 08:52:00
2:52 AM,32.0,12.0,44,29.39,10.0,Calm,Calm,-,N/A,,Clear,0,2011-11-12 09:52:00
3:52 AM,30.0,14.0,51,29.39,10.0,West,4.6,-,N/A,,Clear,280,2011-11-12 10:52:00
4:52 AM,45.0,10.9,25,29.36,10.0,NNW,4.6,-,N/A,,Clear,330,2011-11-12 11:52:00
5:52 AM,46.4,12.2,25,29.34,10.0,NW,10.4,-,N/A,,Clear,310,2011-11-12 12:52:00
6:52 AM,42.1,12.0,29,29.37,10.0,Calm,Calm,-,N/A,,Clear,0,2011-11-12 13:52:00
7:52 AM,44.1,14.0,30,29.35,10.0,NNW,5.8,-,N/A,,Clear,340,2011-11-12 14:52:00
8:17 AM,50.0,14.0,24,29.34,10.0,West,12.7,-,N/A,,Clear,280,2011-11-12 15:17:00
8:52 AM,50.0,15.1,25,29.37,10.0,WNW,9.2,-,N/A,,Clear,290,2011-11-12 15:52:00
9:52 AM,54.0,18.0,24,29.35,10.0,WNW,9.2,20.7,N/A,,Clear,300,2011-11-12 16:52:00
10:52 AM,55.0,19.0,24,29.36,10.0,NW,12.7,-,N/A,,Clear,320,2011-11-12 17:52:00
11:52 AM,55.9,21.0,26,29.35,10.0,WNW,8.1,-,N/A,,Clear,300,2011-11-12 18:52:00
12:52 PM,57.0,15.1,19,29.34,10.0,Calm,Calm,-,N/A,,Clear,0,2011-11-12 19:52:00
1:52 PM,57.0,21.9,26,29.33,10.0,West,9.2,-,N/A,,Clear,280,2011-11-12 20:52:00
2:52 PM,57.9,23.0,26,29.34,10.0,WNW,3.5,-,N/A,,Clear,290,2011-11-12 21:52:00
3:52 PM,52.0,19.9,28,29.34,10.0,ENE,4.6,-,N/A,,Clear,70,2011-11-12 22:52:00
4:52 PM,44.1,19.9,38,29.33,10.0,North,6.9,-,N/A,,Clear,350,2011-11-12 23:52:00
5:52 PM,41.0,21.0,45,29.34,10.0,Calm,Calm,-,N/A,,Clear,0,2011-11-13 00:52:00
6:52 PM,42.1,21.9,45,29.33,10.0,Calm,Calm,-,N/A,,Partly Cloudy,0,2011-11-13 01:52:00
7:52 PM,46.0,21.9,39,29.29,10.0,NNE,3.5,-,N/A,,Overcast,30,2011-11-13 02:52:00
8:52 PM,45.0,27.0,49,29.29,10.0,NNW,12.7,-,N/A,,Overcast,330,2011-11-13 03:52:00
9:52 PM,43.0,28.0,56,29.26,10.0,NNW,13.8,-,N/A,,Mostly Cloudy,340,2011-11-13 04:52:00
10:52 PM,41.0,33.1,73,29.28,10.0,NNW,19.6,27.6,N/A,,Overcast,330,2011-11-13 05:52:00
11:52 PM,37.0,35.1,93,29.33,9.0,NNW,29.9,36.8,0.00,Rain,Light Rain,330,2011-11-13 06:52:00